千帆星座-90 (QIANFAN-90)

导读

QIANFAN-90 是中国自主研发的一颗高分辨率遥感卫星,主要用于国土资源调查、环境监测、灾害预警等领域。该卫星具备高精度成像能力和较强的抗干扰性能,能够提供清晰的地表图像数据。其发射进一步提升了中国在遥感技术领域的自主创新能力,为国家的可持续发展和空间信息应用提供了有力支持。

Basic Information
目录编号:
63176
目录名称:
QIANFAN-90
国际标识:
2025-046T
轨道中心:
EARTH
卫星名称:
千帆星座-90
卫星全名:
千帆星座-90 (QIANFAN-90)
卫星状态:
在轨 (已飞行459 天)
发射日期:
2025-03-11 UTC
国别 :
中国 (CN)
星等 :
--
Orbit Information
数据来源 国际轨道数据 AOE轨道数据
星历时间 2026-06-13T03:19:24+0800
6小时前
查看轨道信息
2026-06-13T04:00:00+0800
6小时前
查看轨道信息
半长轴 7446.665km 7446.668km
偏心率 0.0011893 0.0012024
轨道倾角 88.971° 88.971°
近地点辐角 323.877° 322.900°
升交点赤经 301.130° 301.127°
平近点角 36.158° 174.176°
近地点 1059.671km 1059.577km
远地点 1077.385km 1077.485km
周期 106.587分钟 106.587分钟
每日圈数 13.510147 13.51014
Detailed Information
卫星平台:
90
覆盖范围:
全球
运营商:
上海垣信卫星科技有限公司
运营商所在国:
中国
使用方式:
暂无
Satellite Introduction
千帆星座,也被称为“G60星链”计划,是中国版“星链”的重要组成部分,旨在打造一个由1.4万多颗低轨宽频多媒体卫星构成的庞大星座。千帆星座计划由上海垣信卫星科技有限公司负责实施,于2023年启动建设。该项目是我国第二个低轨卫星大星座,旨在通过构建庞大的卫星网络,为全球用户提供高质量的通信和宽带互联网服务。
2D Orbit Map
3D Orbit Map
Orbit Altitude Analysis Chart
Orbit Inclination Analysis Chart
Orbit Comprehensive Analysis Chart
View Comprehensive Chart